Regional Weather Roundup
Issued by NWS Kansas City/Pleasant Hill, MO

Home | Current Version | Previous Version | Graphics & Text | Print | Product List | Glossary Off
Versions: 1 2 3 4 5 6 7 8 9 10 11 12 13 14 15 16 17 18 19 20 21 22 23 24 25 26 27 28 29 30 31 32 33 34 35 36 37 38 39 40 41 42 43 44 45 46 47 48 49 50

000
ASUS43 KEAX 292011
RWREAX

WEATHER ROUNDUP FOR EASTERN KANSAS AND NORTHWEST MISSOURI
NATIONAL WEATHER SERVICE KANSAS CITY/PLEASANT HILL MO
300 PM CDT SUN MAR 29 2015

KSZ040-057-103>105-MOZ028-029-037-043-292100-
...KANSAS CITY METROPOLITAN AREA...

CITY           SKY/WX    TMP DP  RH WIND       PRES   REMARKS
K.C. INTL      PTSUNNY   68  40  35 NW20G29   29.97F
K.C. DOWNTOWN  CLOUDY    68  41  37 W14G22    29.97F
LEES SUMMIT    MOSUNNY   62  42  47 NW15G24   29.98S
OLATHE - IXD   PTSUNNY   64  41  42 NW15      30.00S
OLATHE - OJC   PTSUNNY   63  40  42 NW16G23   29.98S
LAWRENCE       CLOUDY    70  39  32 NW18      29.99F

$$

MOZ001>008-011>017-020>025-030>033-038>040-044>046-053-054-292100-
...NORTHERN AND CENTRAL MISSOURI...

CITY           SKY/WX    TMP DP  RH WIND       PRES   REMARKS
ST. JOSEPH     PTSUNNY   67  41  38 NW28G36   29.98R
MOSBY          CLOUDY    64  39  39 NW17      29.96F
WARRENSBURG    MOSUNNY   59  41  51 SW8       29.98F
WHITEMAN AFB   MOSUNNY   59  42  52 W12G20    29.97F
CLINTON        PTSUNNY   57  43  58 SW15G21   30.01F
SEDALIA        PTSUNNY   59  41  51 W12G21    29.98F
WARSAW         NOT AVBL
MARSHALL       MOSUNNY   59  45  58 W9        29.97F
CHILLICOTHE      N/A     64  43  46 W10       29.94F
MOBERLY        MOSUNNY   57  39  51 SW14      29.96F
KIRKSVILLE     CLOUDY    58  42  55 W18G25    29.93S

$$

MOZ041-047>049-056>058-063>065-088>090-097-292100-
...EASTERN AND SOUTHERN MISSOURI...

CITY           SKY/WX    TMP DP  RH WIND       PRES   REMARKS
ST. LOUIS INTL CLOUDY    59  33  37 SW12      29.95F
SPIRIT OF STL  LGT RAIN  59  35  40 SW13      29.95F
COLUMBIA       CLOUDY    54  38  54 W13       29.98S
JEFFERSON CITY CLOUDY    56  36  47 W9        29.97F
MEXICO         CLOUDY    54  43  66 SW14G20   29.94F
HANNIBAL       CLOUDY    59  36  41 W18       29.93S
ROLLA          PTSUNNY   57  38  48 W14G25    29.95F
LEBANON        CLOUDY    57  39  51 W9        30.00F
OSAGE BEACH    CLOUDY    55  36  47 SW10      29.99F
SPRINGFIELD    CLOUDY    62  41  46 W3        29.99F
BRANSON        PTSUNNY   70  43  37 SW7       29.99F
NEVADA         CLOUDY    57  43  58 SW7       30.04R
JOPLIN         CLOUDY    60  43  53 W13G22    30.05R
WEST PLAINS    MOSUNNY   58  41  53 S12       30.01F

$$

IAZ060-094-KSZ022-034>040-054-083-096-NEZ052-066-093-292100-
...KANSAS...SOUTHEAST NEBRASKA AND IOWA...

CITY           SKY/WX    TMP DP  RH WIND       PRES   REMARKS
TOPEKA         MOSUNNY   69  40  34 NW20G35   30.01R
EMPORIA        PTSUNNY   69  34  27 NW22      30.01F
CHANUTE        PTSUNNY   63  45  51 S3        30.02F
WICHITA        PTSUNNY   74  33  22 N15G26    30.04F
OMAHA          MOSUNNY   60  37  42 NW23G32   30.01F
LINCOLN        SUNNY     61  35  37 NW24G39   30.07F
FALLS CITY     MOSUNNY   62  40  44 NW26G38   30.02R
LAMONI         CLOUDY    63  41  44 NW33G44   29.92S
DES MOINES     CLOUDY    56  39  53 NW26G40   29.91R

$$




USA.gov is the U.S. government's official web portal to all federal, state and local government web resources and services.